Showing default

POLAR SCOUT YUKON, 43808

Orbit data source: Space-Track

POLAR SCOUT YUKON, 43808 is an American payload satellite in SSO that was launched on Mon, 03 Dec 2018 UTC via an FALCON 9 launch vehicle from the Air Force Western Test Range (AFWTR). Payload-class satellites include a variety of spacecraft equipped with specific instruments for various scientific and technological missions. These include communications satellites like Starlink; space stations such as the ISS; scientific satellites like the Hubble; Earth observation satellites from companies like Planet Labs, Umbra, and HawkEye 360; GPS; miniature CubeSats for education and research; and military/defense satellites.

Loading next visibility...
Identifier
43808, 2018-099BC
Orbit
SSO
Country
Flag of USUS
Related business
Manufacturer
Millenium EI
Mission
Operational Defense Technology
Bus & Motor
CUBESAT 6U, Unknown motor
Mass
10 kg wet, 10 kg dry
Launch date (UTC)
2018-12-03 (7 years ago)
Launch vehicle
FALCON 9
Launch site
Air Force Western Test Range (AFWTR)
Object type
Payload
Rocket body
Debris
Shape & HBR
Box + 3 Pan, 0.3 m
Radar Cross Section
0.054 m², Medium (>0.1 m² and < 1m²)

Expand to show TLE details & history
Last TLE update: 7 hours ago

TLE from 7 hours ago
0 POLAR SCOUT YUKON
1 43808U 18099BC  26125.10485238  .00022632  00000-0  64075-3 0  9997
2 43808  97.4691 197.2053 0006609 119.9842 240.2059 15.36276721406892
Epoch: 2026-05-05T02:30Z
TLE epoch observation values (Epoch: 2026-05-05T02:30:59.245Z)
Latitude
0.00002°
Longitude
-63.52604°
Altitude
462.489 km
Speed
7.634 km/s
True Right ascension
13h 08m 49s
True Declination
0° 00' 00"
Sunlit
Object was in full shadow at epoch
Visualization orbit readout
Latitude
Unknown
Longitude
Unknown
Altitude
Unknown
Speed
Unknown
Apparent Right ascension
Unknown
Apparent Declination
Unknown
Sunlit
N/A
Visualization observer readout
Local Sidereal Time
17:20:47
Azimuth
Unknown
Elevation
Unknown
Doppler factor
Unknown
Orbital elements
Apogee altitude
458.593 km
Perigee altitude
449.562 km
Semi-major axis
6,832.215 km
Eccentricity
0.00066
Inclination
97.4691°
RAAN
197.2053°
Arg. of periapsis
119.9842°
True anomaly
240.1402°
Mean anomaly
240.2059°
Eccentric anomaly
240.17305°
Mean motion
3.84327 °/min
Orbital period
93.67 mins
BSTAR
0.00064075
Loading maneuver chart data...
Computing Atmospheric mass density...
Loading historical data...
Loading historical data...
Loading historical data...
Loading historical data...
Loading historical data...
Loading historical data...
Loading historical data...

Documentation

Showing up to 5 results
|